Wind_Speed
19 19 18 18 20 21 23 25 27 29 31 33 36 40 44 48 53 57 61 64 68 71 73 72 69 67 68 68 68 70 73 76 76 75 71 67 65 64 64 65 65 65 67 69
22 22 22 21 22 23 25 27 29 31 32 35 37 41 44 48 53 57 61 65 69 72 73 74 72 68 68 68 68 69 72 75 75 74 71 67 64 63 63 64 64 65 66 68
25 25 26 24 24 25 26 28 31 32 34 37 39 42 45 48 52 57 62 66 69 72 74 76 74 70 68 68 68 69 71 73 74 74 71 66 63 62 62 62 63 63 64 66
29 28 29 26 27 28 29 30 32 33 35 38 41 43 47 49 52 56 61 65 68 71 74 76 76 72 69 68 68 68 70 72 73 73 70 66 63 61 61 61 61 62 63 64
33 33 31 29 30 31 33 32 33 35 37 40 42 44 47 50 52 56 60 64 68 71 73 76 77 75 70 68 68 68 69 71 72 72 69 66 62 60 60 60 60 60 61 62
37 37 36 31 32 35 37 36 36 38 39 41 44 47 49 51 53 56 59 63 67 70 73 75 77 76 71 68 67 67 68 69 71 71 69 65 62 60 59 59 59 59 60 60
39 41 39 35 36 39 40 41 41 42 43 44 45 48 50 53 54 56 58 62 66 70 71 74 76 76 72 68 67 66 66 68 70 69 68 65 62 60 58 57 58 58 58 58
42 42 40 38 39 41 43 44 44 46 47 47 48 49 51 53 55 56 57 60 64 68 70 73 75 75 72 68 66 65 65 66 68 69 67 65 61 59 57 56 55 55 55 55
44 43 40 39 40 43 46 47 47 49 49 50 50 51 52 54 55 55 56 58 62 67 69 71 73 74 72 69 66 64 64 64 66 68 67 65 61 58 56 54 53 52 52 52
46 42 38 39 41 44 48 50 50 52 52 52 52 52 52 53 55 55 55 56 60 65 67 69 71 72 72 69 65 63 62 63 64 66 67 65 61 58 55 53 51 50 50 50
45 39 36 37 40 43 46 50 52 53 53 53 54 53 52 53 54 54 53 54 58 63 66 67 69 70 71 69 65 62 61 61 62 64 65 65 63 58 55 53 51 50 49 48
47 41 41 40 38 39 43 48 51 53 53 53 54 54 52 52 53 53 52 53 56 61 64 65 67 68 69 68 64 62 60 59 60 62 63 64 63 60 55 52 51 50 48 47
52 50 49 45 42 41 44 46 49 51 53 53 54 54 53 52 53 52 51 52 54 59 62 63 65 66 67 67 64 61 59 58 58 60 61 62 61 58 55 52 50 49 47 45
59 59 58 54 51 48 47 47 49 51 52 54 55 55 54 53 53 52 51 51 54 58 60 61 62 63 64 66 63 60 58 56 56 57 59 60 60 57 54 50 49 47 46 44
66 67 66 64 60 56 53 52 52 52 53 55 56 56 56 55 54 53 53 53 54 57 58 59 60 61 62 63 62 59 57 55 54 54 57 58 59 58 54 50 47 45 44 43
72 73 72 71 68 64 61 59 57 56 56 56 57 57 58 57 56 55 55 55 55 56 57 57 57 58 59 61 61 58 56 53 52 52 54 56 57 57 55 51 46 43 41 40
73 73 73 73 71 69 67 64 61 59 58 58 58 58 59 59 58 58 58 58 56 56 56 55 54 55 56 58 59 57 54 52 50 49 51 53 55 56 55 51 46 42 40 39
69 69 69 68 68 68 67 66 64 62 61 60 60 60 61 60 60 60 60 59 57 55 54 52 52 52 53 55 57 56 53 50 48 47 48 51 53 54 54 52 47 42 39 38
61 64 66 67 66 66 65 64 63 62 62 61 60 61 61 61 60 60 61 60 57 54 52 49 49 49 50 52 55 54 52 49 47 45 45 48 50 52 53 52 48 42 38 36
55 58 60 63 65 65 65 65 64 63 61 61 60 59 60 60 60 60 59 57 54 54 50 47 46 46 47 49 52 52 50 47 45 43 43 45 48 50 52 51 48 43 38 35
52 54 56 58 61 63 64 64 64 64 62 61 59 57 57 58 58 57 56 55 52 52 47 43 43 43 44 46 50 50 49 46 43 41 41 42 45 48 50 50 48 43 38 34
52 54 56 59 61 62 64 64 64 63 62 60 58 56 55 55 55 55 54 53 52 50 44 40 40 40 41 44 47 48 47 44 41 39 38 39 42 45 47 49 47 43 38 33
57 59 60 61 62 62 64 65 65 63 61 59 57 55 53 53 53 53 53 52 51 49 43 39 38 37 38 41 44 45 45 42 40 37 36 37 39 42 45 47 46 43 38 32
64 65 66 67 67 67 66 66 65 62 59 58 55 54 52 51 51 52 52 51 50 47 41 38 36 35 36 38 41 42 42 40 38 36 34 35 36 40 43 45 45 43 38 32
70 71 72 73 71 69 67 66 64 60 56 55 53 53 52 51 50 51 51 50 48 45 40 37 34 33 34 36 38 40 40 38 37 35 33 32 34 37 40 43 44 42 38 32
75 76 76 74 72 70 67 64 62 58 54 52 50 51 52 52 51 51 50 48 46 42 38 35 33 32 32 34 35 37 37 36 35 33 32 31 32 34 38 41 42 41 37 32
77 77 75 73 70 68 65 62 60 58 55 54 52 52 53 54 53 52 50 47 43 39 35 33 31 30 31 32 33 35 35 35 33 32 31 29 30 32 35 38 41 40 37 32
Wind_Direction
265 271 279 289 298 307 314 321 327 334 338 343 347 349 352 354 354 354 354 355 356 355 355 353 350 348 348 349 349 350 351 351 352 353 352 353 354 356 358 359 1 3 4 6
266 271 276 283 293 302 309 314 321 326 332 337 341 344 348 351 352 352 353 353 354 354 354 353 351 348 348 349 350 350 351 352 353 354 354 354 355 357 359 1 2 4 6 7
267 272 277 284 289 297 304 311 316 322 326 331 336 340 343 347 349 350 351 352 352 353 353 353 351 349 348 349 350 351 352 353 354 355 355 355 355 357 360 2 3 4 6 8
270 272 276 284 285 291 299 308 312 317 321 325 331 335 338 342 345 347 349 350 351 351 351 352 351 349 348 349 350 351 352 353 354 355 356 356 356 357 360 2 4 5 7 9
272 275 279 281 285 289 295 303 308 313 317 321 325 329 333 337 341 344 346 348 349 350 350 350 351 350 348 349 350 351 352 353 355 356 357 357 357 357 360 2 4 6 8 10
271 275 280 284 286 289 293 298 302 307 312 317 320 324 329 332 337 340 342 345 347 348 348 349 349 349 348 348 350 351 352 353 355 356 357 357 357 358 359 1 4 6 8 10
270 273 279 285 287 289 291 295 299 303 307 311 316 320 324 327 332 337 339 342 344 346 347 347 348 349 348 347 349 351 353 353 354 356 357 358 358 359 360 1 3 6 8 9
267 271 277 280 283 285 287 291 295 299 302 307 311 315 319 322 327 332 336 338 341 343 345 346 347 348 348 347 348 351 352 353 354 356 357 358 358 359 1 2 3 5 6 8
269 272 276 279 280 282 285 289 292 295 298 303 306 310 314 318 322 327 332 335 338 341 342 344 345 346 347 347 347 349 352 353 354 355 357 358 359 360 1 2 3 4 5 8
271 274 278 278 278 280 282 286 288 291 295 299 302 306 310 314 318 323 327 331 335 338 340 342 343 345 346 346 346 348 351 352 354 355 356 358 360 0 1 2 3 3 5 7
273 277 278 276 277 278 280 283 285 288 292 295 298 302 306 310 313 318 323 328 332 335 337 339 341 343 345 345 345 347 349 351 353 354 355 357 359 0 1 1 3 4 5 7
274 276 276 274 274 275 276 278 281 285 289 292 295 298 303 306 309 314 319 324 328 332 335 337 339 341 343 345 345 346 348 350 352 353 354 356 358 359 0 1 2 4 5 6
272 273 272 271 270 270 271 274 278 281 284 288 291 294 298 302 305 310 315 320 325 328 332 334 337 339 341 344 344 344 347 349 351 352 354 355 357 359 359 360 1 3 4 6
271 272 271 270 268 267 268 270 273 276 280 283 287 290 294 297 301 306 311 316 321 325 328 331 334 336 339 342 343 343 345 347 350 351 353 354 356 358 359 359 360 1 3 5
272 273 273 272 270 269 268 268 269 272 276 280 283 287 291 294 298 302 307 312 316 321 325 328 331 334 337 340 342 342 343 346 348 350 352 353 355 357 358 359 360 0 2 3
273 273 274 274 274 272 271 271 271 273 275 277 280 284 287 290 294 298 303 307 313 317 321 325 328 331 334 338 341 341 342 344 346 349 350 352 353 355 357 358 359 360 1 2
274 274 274 275 275 275 274 273 273 274 274 275 277 279 282 286 290 294 298 303 308 313 317 322 325 328 332 335 339 339 340 342 344 347 349 351 352 354 356 358 358 358 360 2
272 273 275 275 276 275 275 275 274 273 273 272 273 274 277 281 285 289 294 298 304 308 313 318 321 325 329 332 336 338 338 340 342 345 347 349 350 352 354 356 357 357 358 1
277 276 276 276 276 276 275 274 274 273 271 270 271 272 274 277 281 285 288 293 299 303 308 314 317 321 326 330 334 337 337 338 340 342 345 347 349 351 353 355 356 356 357 359
281 281 280 278 277 277 276 274 272 272 271 270 269 270 271 273 276 279 284 289 294 297 303 309 313 318 322 326 331 334 335 336 337 340 343 345 347 349 351 353 355 356 356 357
285 285 285 284 282 280 278 277 274 272 271 270 269 268 268 270 272 276 280 284 288 292 299 305 309 314 319 323 329 332 333 333 335 337 340 342 344 347 349 352 354 354 355 356
290 289 288 288 287 285 283 280 278 275 271 269 267 266 265 266 268 271 274 278 282 287 294 299 304 310 315 320 326 330 331 331 332 335 337 340 342 344 347 350 352 353 354 354
290 291 291 290 289 288 287 284 281 278 273 268 264 262 261 262 264 266 269 273 277 282 288 293 298 305 311 317 323 328 328 328 329 332 335 337 339 342 345 347 350 352 352 353
289 290 290 289 289 288 286 284 281 279 273 267 262 258 256 257 259 261 263 267 272 277 281 286 292 300 307 314 320 325 326 326 326 328 332 334 337 339 342 345 348 350 351 351
287 288 288 287 287 286 284 281 277 274 270 264 258 253 251 250 252 254 257 261 266 271 275 280 287 295 302 310 317 322 323 323 323 325 328 331 333 337 340 342 345 348 350 350
285 284 284 283 282 280 278 275 271 267 264 258 251 247 245 246 247 249 252 256 261 265 269 275 282 289 297 306 314 319 320 320 320 322 325 327 330 333 337 340 343 346 348 348
283 281 279 277 275 274 271 267 263 259 255 250 245 242 241 241 243 246 249 252 256 260 264 269 276 284 293 302 310 315 317 316 316 319 322 324 326 330 334 337 340 343 346 346
Height
5860 5859 5857 5855 5852 5849 5845 5841 5837 5833 5827 5821 5814 5806 5798 5789 5779 5768 5757 5745 5732 5718 5705 5690 5675 5661 5646 5631 5615 5599 5581 5563 5545 5527 5509 5493 5478 5462 5447 5430 5414 5398 5381 5363
5855 5853 5851 5850 5847 5843 5840 5836 5832 5827 5822 5816 5809 5801 5793 5785 5775 5764 5753 5741 5728 5715 5701 5686 5671 5657 5642 5627 5612 5595 5578 5561 5543 5525 5508 5492 5477 5463 5447 5431 5415 5399 5383 5366
5849 5847 5845 5844 5842 5838 5835 5831 5827 5822 5817 5810 5804 5796 5788 5780 5771 5760 5748 5737 5724 5711 5697 5683 5668 5653 5639 5624 5608 5592 5576 5559 5541 5524 5507 5492 5477 5463 5448 5433 5418 5402 5386 5370
5841 5840 5838 5841 5835 5832 5829 5826 5821 5816 5810 5805 5798 5791 5782 5774 5765 5755 5744 5733 5720 5707 5694 5680 5665 5650 5635 5621 5605 5590 5574 5557 5540 5523 5507 5491 5477 5464 5450 5435 5421 5406 5390 5375
5833 5831 5831 5832 5829 5825 5822 5820 5814 5809 5804 5798 5792 5786 5778 5769 5760 5751 5740 5729 5717 5704 5691 5676 5662 5647 5632 5618 5603 5588 5573 5557 5540 5523 5507 5492 5478 5464 5451 5438 5424 5409 5394 5379
5824 5822 5822 5826 5822 5817 5814 5812 5808 5802 5797 5792 5785 5779 5773 5764 5755 5745 5735 5724 5712 5700 5687 5673 5659 5645 5630 5616 5601 5587 5572 5556 5539 5523 5508 5493 5479 5465 5451 5438 5425 5411 5397 5383
5815 5811 5813 5816 5812 5808 5805 5803 5798 5793 5789 5784 5778 5771 5765 5756 5748 5739 5729 5719 5708 5696 5684 5671 5657 5643 5628 5614 5600 5586 5571 5555 5540 5524 5508 5494 5480 5467 5453 5440 5426 5413 5400 5388
5805 5804 5807 5805 5802 5798 5795 5792 5788 5783 5779 5775 5770 5764 5757 5749 5741 5732 5724 5713 5703 5692 5680 5668 5654 5641 5626 5612 5598 5584 5570 5556 5541 5525 5510 5495 5481 5468 5455 5442 5430 5418 5406 5394
5796 5798 5797 5795 5791 5787 5783 5781 5778 5774 5770 5766 5761 5755 5749 5742 5734 5726 5717 5708 5698 5688 5676 5664 5651 5638 5624 5610 5596 5583 5570 5556 5542 5527 5512 5498 5484 5471 5458 5446 5434 5423 5412 5400
5785 5788 5787 5783 5780 5776 5772 5769 5766 5762 5760 5756 5751 5746 5741 5734 5726 5719 5711 5702 5693 5683 5672 5661 5648 5635 5622 5608 5594 5581 5569 5556 5542 5528 5513 5499 5486 5473 5461 5450 5439 5427 5416 5405
5773 5776 5774 5772 5768 5765 5761 5757 5753 5751 5748 5744 5740 5736 5731 5725 5718 5711 5704 5696 5687 5678 5668 5657 5645 5632 5619 5606 5592 5580 5567 5555 5541 5528 5514 5500 5487 5475 5463 5451 5440 5430 5419 5408
5761 5763 5759 5759 5756 5752 5749 5745 5742 5739 5736 5732 5728 5724 5720 5715 5709 5703 5696 5689 5681 5672 5663 5652 5641 5629 5616 5603 5590 5578 5566 5554 5541 5527 5513 5499 5486 5474 5463 5453 5441 5431 5420 5410
5747 5745 5741 5742 5741 5738 5735 5734 5732 5728 5724 5720 5716 5713 5709 5705 5699 5694 5687 5681 5674 5666 5657 5647 5636 5625 5613 5601 5588 5576 5564 5552 5540 5528 5514 5500 5486 5474 5463 5452 5443 5433 5423 5414
5731 5726 5722 5724 5723 5723 5721 5720 5718 5715 5712 5709 5705 5701 5698 5694 5689 5684 5678 5672 5666 5659 5651 5642 5632 5621 5610 5598 5586 5574 5562 5551 5540 5528 5515 5502 5489 5477 5466 5455 5445 5435 5426 5417
5712 5707 5702 5703 5705 5707 5706 5705 5703 5702 5700 5697 5693 5690 5687 5683 5679 5674 5669 5663 5657 5651 5644 5636 5626 5617 5606 5595 5583 5571 5560 5550 5539 5528 5516 5504 5491 5479 5468 5458 5448 5438 5429 5420
5687 5684 5682 5683 5686 5689 5689 5689 5689 5689 5688 5685 5682 5679 5675 5672 5669 5664 5659 5654 5649 5643 5637 5629 5621 5612 5602 5591 5580 5569 5558 5548 5538 5528 5517 5505 5492 5481 5469 5459 5450 5441 5432 5423
5660 5661 5662 5663 5666 5668 5671 5673 5673 5674 5673 5671 5669 5665 5662 5659 5656 5652 5648 5643 5639 5634 5629 5622 5614 5606 5597 5587 5576 5566 5555 5545 5536 5526 5516 5505 5493 5482 5470 5460 5451 5442 5435 5426
5637 5639 5642 5642 5644 5647 5651 5654 5654 5654 5654 5654 5651 5649 5647 5645 5643 5640 5636 5632 5629 5625 5619 5614 5607 5599 5591 5582 5572 5562 5552 5542 5533 5524 5515 5504 5493 5482 5471 5460 5451 5443 5435 5428
5622 5623 5624 5623 5624 5625 5629 5632 5632 5632 5633 5633 5633 5633 5632 5631 5629 5627 5623 5621 5618 5614 5610 5605 5599 5592 5585 5576 5567 5558 5548 5539 5530 5522 5513 5503 5493 5482 5471 5461 5451 5443 5436 5428
5606 5606 5605 5605 5605 5605 5607 5609 5609 5610 5612 5612 5613 5614 5615 5615 5614 5612 5610 5609 5607 5602 5599 5596 5590 5584 5578 5570 5562 5553 5544 5535 5527 5519 5510 5501 5491 5481 5471 5461 5451 5443 5436 5429
5590 5589 5587 5586 5586 5586 5586 5587 5588 5590 5591 5592 5594 5596 5597 5597 5597 5597 5596 5596 5594 5590 5588 5585 5580 5576 5570 5563 5555 5547 5539 5530 5523 5515 5507 5499 5490 5480 5470 5460 5451 5443 5435 5429
5574 5573 5571 5569 5568 5567 5566 5565 5566 5568 5570 5572 5574 5576 5577 5579 5580 5581 5581 5581 5580 5577 5576 5574 5570 5566 5562 5555 5548 5541 5533 5525 5518 5511 5504 5496 5488 5478 5469 5459 5450 5442 5435 5428
5558 5555 5553 5551 5549 5548 5546 5545 5545 5546 5548 5551 5553 5555 5558 5560 5562 5564 5566 5566 5565 5564 5564 5563 5560 5557 5553 5547 5541 5534 5527 5520 5513 5506 5500 5493 5485 5476 5467 5458 5449 5441 5434 5428
5538 5535 5533 5530 5528 5527 5526 5525 5523 5524 5526 5529 5532 5535 5537 5540 5543 5546 5548 5549 5550 5551 5552 5550 5548 5546 5543 5538 5533 5527 5520 5514 5508 5501 5495 5489 5482 5474 5465 5457 5448 5440 5433 5427
5515 5512 5510 5507 5505 5504 5503 5503 5502 5503 5505 5508 5512 5515 5518 5521 5525 5527 5530 5533 5535 5537 5538 5537 5537 5535 5532 5529 5524 5519 5513 5507 5502 5496 5490 5484 5478 5471 5463 5455 5446 5438 5431 5425
5489 5486 5484 5481 5480 5480 5480 5480 5481 5483 5485 5489 5492 5496 5500 5503 5507 5510 5513 5517 5520 5523 5525 5525 5525 5524 5522 5519 5515 5511 5505 5500 5495 5490 5485 5479 5474 5467 5460 5452 5444 5437 5430 5424
5460 5457 5454 5454 5455 5455 5456 5457 5460 5463 5466 5470 5474 5478 5482 5486 5490 5494 5498 5501 5505 5509 5511 5512 5513 5513 5511 5509 5506 5502 5497 5493 5488 5484 5479 5474 5469 5463 5457 5450 5442 5435 5428 5422